Weather Service Report


170 
ASUS42 KCAE 262310
RWRCAE
REGIONAL WEATHER ROUNDUP
NATIONAL WEATHER SERVICE COLUMBIA SC
600 PM EST SUN FEB 26 2017

NOTE: "FAIR" INDICATES FEW OR NO CLOUDS BELOW 12,000 FEET WITH NO
SIGNIFICANT WEATHER AND/OR OBSTRUCTIONS TO VISIBILITY.

NOT ALL STATIONS ARE QUALITY CONTROLLED BY THE NATIONAL 
WEATHER SERVICE. USE DATA WITH CAUTION...ESPECIALLY 
DEWPOINT OBSERVATIONS.

SCZ001>056-GAZ040-063>065-077-270000-
...UPSTATE SOUTH CAROLINA...
  
CITY           SKY/WX    TMP DP  RH WIND       PRES   REMARKS
ANDERSON       CLEAR     58  17  20 S6        30.18R                  
LIBERTY        CLEAR     58  18  21 S8        30.17R                  
SPARTANBURG    CLEAR     55  10  16 W3        30.19R                  
CLEMSON        CLEAR     60  16  18 VRB3      30.18R                  
GREENVILLE     CLEAR     58  14  17 S7        30.19R                  
GREENWOOD      CLEAR     58  13  17 SW3       30.21R                  
GREER          CLEAR     56  14  19 S7        30.18R                  
ROCK HILL      CLEAR     57  12  17 CALM      30.21R                  
CHESTER        CLEAR     55  14  19 CALM      30.21R                  
LAURENS        CLEAR     59  16  18 CALM      30.20R                  


...CENTRAL SOUTH CAROLINA...
  
CITY           SKY/WX    TMP DP  RH WIND       PRES   REMARKS
COLUMBIA APT   CLEAR     61  20  20 CALM      30.21R                  
COLUMBIA OWENS CLEAR     61  18  18 NW5       30.22R                  
MCENTIRE ANGB  CLEAR     57  20  23 N7        30.21R                  
ORANGEBURG     CLEAR     61  18  18 SW5       30.21R                  
SUMTER SHAW    CLEAR     59  16  18 W5        30.19R                  
AIKEN          FAIR      59  18  20 W5        30.24R                  
BARNWELL       FAIR      63  19  19 W3        30.21R                  
MANNING        FAIR     N/A N/A N/A MISG      30.22R                  
CAMDEN         FAIR      59  21  23 CALM      30.22R                  
LANCASTER      CLEAR     57  10  15 SW3       30.21R                  
WINNSBORO      CLEAR     55  23  28 CALM      30.21R                  


...EASTERN AND COASTAL SOUTH CAROLINA...
  
CITY           SKY/WX    TMP DP  RH WIND       PRES   REMARKS
MYRTLE BEACH   CLEAR     55  34  44 S8        30.23R                  
N MYRTLE BCH   CLEAR     53  34  48 SW8       30.23R                  
CONWAY         FAIR      54  28  37 CALM      30.23R HAZE             
MARION         FAIR      55  21  26 NW3       30.23R                  
HARTSVILLE     FAIR      54  27  35 CALM      30.21R                  
FLORENCE       CLEAR     57  19  22 W6        30.22R                  
DARLINGTON     CLEAR     58  23  26 CALM      30.23R                  
CHARLESTON APT CLEAR     56  35  45 S7        30.23R                  
MOUNT PLEASANT LGT RAIN  55  36  47 S5        30.23R                  
WALTERBORO     CLEAR     63  23  22 NW3       30.22R                  
BEAUFORT       CLEAR     61  41  47 S6        30.22R                  


...EASTERN GEORGIA...
  
CITY           SKY/WX    TMP DP  RH WIND       PRES   REMARKS
AUGUSTA BUSH F CLEAR     65  20  17 CALM      30.19R                  
AUGUSTA DANIEL CLEAR     64  17  16 NE5       30.20R                  
THOMSON        CLEAR     65  26  22 CALM      30.23S                  
WASHINGTON     FAIR      63  27  25 CALM      30.19R                  
CLAXTON        FAIR      60  34  37 CALM      30.21R                  
SYLVANIA       CLEAR    N/A N/A N/A NW3       30.22R                  
STATESBORO     CLEAR     64  35  34 CALM      30.21R                  
SAVANNAH       CLEAR     65  22  19 CALM      30.21R                  


...SOUTHERN NORTH CAROLINA...
  
CITY           SKY/WX    TMP DP  RH WIND       PRES   REMARKS
CHARLOTTE      PTCLDY    55  12  18 SW3       30.21R                  
MONROE         CLEAR     55  14  19 W3        30.20R                  
WADESBORO      PTCLDY    55  15  20 CALM      30.22R                  
ROCKINGHAM     CLEAR     55  20  26 SW3       30.23R                  
RUTHERFORDTON  CLEAR     55  15  20 S8        30.19R                  
ASHEVILLE      CLEAR     52   7  16 CALM      30.17R                  

$$
  

Return to Home page


Western Regional Climate Center, wrcc@dri.edu